Погода в Лесках

Россия / Липецкая область     52°52′46″N   38°59′46″E
темп.,
°C
ветер,
м/с
пор.,
м/с
влажн.,
%
обл.,
%
осадки,
мм/ч
давл.,
гПа
погр.,
м
10 апреля, сб
сб1000:00+3с11615 0.0 102710
03:00+2св22665 0.0 102810
06:00+1св22703 0.0 102813
09:00+6всв23555 0.0 1028373
12:00+8ссв21455 0.0 10271332
15:00+10с22385 0.0 10261541
18:00+9с23430 0.0 1026285
21:00+6с22520 0.0 102711
11 апреля, вс
вс1100:00+4ссз22560 0.0 102711
03:00+3ссз33615 0.0 102821
06:00+2ссз226742 0.0 102922
09:00+7ссв345198 0.0 1030329
12:00+10ссв4539100 0.0 1030971
15:00+12св5637100 0.0 10291091
18:00+11св484798 0.0 1029329
21:00+7св41163100 0.0 1030272
12 апреля, пн
пн1200:00+6св41165100 0.0 1029263
03:00+6св51070100 0.0 1029313
06:00+5св51084100 0.0 1028291
09:00+8всв5884100 0.0 1028336
12:00+13в5769100 0.0 1026536
15:00+18в5850100 0.0 1025921
18:00+16в3654100 0.0 102492
21:00+13вюв4116470 0.0 1025179
13 апреля, вт
вт1300:00+11юв4127269 0.0 1025192
03:00+10юв4107393 0.0 1025153
06:00+8юв4875100 0.0 1025131
09:00+13юв5859100 0.0 1024324
12:00+17ююв5845100 0.0 1024938
15:00+18юв6741100 0.0 10231043
18:00+17юв48485 0.0 1022223
21:00+13вюв485979 0.0 1022106
14 апреля, ср
ср1400:00+12юв336791 0.0 102237
03:00+10юв4107193 0.0 1021203
06:00+9юв487772 0.0 1021137
09:00+13ююв586274 0.0 1021401
12:00+17ююв5753100 0.0 1020912
15:00+19ююв6846100 0.0 10191653
18:00+17юв58495 0.0 1018249
21:00+13ююв3750100 0.0 1018107